Home   Weather   Völkermarkt   Past weeks
Flag for Austria

Past Weather in Völkermarkt, Carinthia, Austria — Yesterday and Last 2 Weeks

Now
29 °F

Low clouds.


Feels Like: 29 °F
Forecast: 44 / 36 °F
Wind: 2 mph from North

Location: Klagenfurt-Flughafen

Current Time: Dec 15, 2019 at 9:51:15 pm

Latest Report: Dec 15, 2019 at 8:00 pm


Visibility: 0 mi

Pressure: 30.12 "Hg

Humidity: 98%

Dew Point: 28 °F

Location of VölkermarktLocation

Past Weather in Völkermarkt — Graph

°F

Völkermarkt Temperature Yesterday

Maximum temperature yesterday: 35 °F (at 2:00 pm)
Minimum temperature yesterday: 28 °F (at 5:00 am)
Average temperature yesterday: 31 °F

High & Low Weather Summary for the Past Weeks

 TemperatureHumidityPressure
High39 °F (Dec 1, 3:00 pm)100% (Dec 8, 6:00 pm)30.48 "Hg (Dec 8, 6:00 pm)
Low20 °F (Dec 11, 8:00 am)69% (Dec 1, 1:00 pm)29.23 "Hg (Dec 13, 3:00 pm)
Average30 °F90%30.08 "Hg
* Reported Nov 30 8:00 pm — Dec 15 8:00 pm, Völkermarkt. Weather by CustomWeather, © 2019

Note: Actual official high and low records may vary slightly from our data, if they occured in-between our weather recording intervals... More about our weather records

Völkermarkt Weather History for the Previous 24 Hours

Scroll right to see more
 ConditionsComfort  
Time TempWeatherWind HumidityBarometerVisibility
8:00 pm
Sun, Dec 15
29 °FLow clouds.2 mph98%30.12 "Hg1 mi
7:00 pm30 °FLow clouds.2 mph96%30.11 "Hg3 mi
6:00 pm30 °FLow clouds.1 mph93%30.08 "Hg7 mi
5:00 pm29 °FLow clouds.2 mph93%30.06 "Hg7 mi
4:00 pm31 °FLow clouds.1 mph89%30.05 "Hg10 mi
3:00 pm33 °FLow clouds.2 mph87%30.03 "Hg12 mi
2:00 pm33 °FLow clouds.2 mph87%30.03 "Hg11 mi
1:00 pm33 °FPartly sunny.2 mph85%30.03 "Hg9 mi
12:00 pm32 °FLow clouds.3 mph89%30.06 "Hg9 mi
11:00 am31 °FLow clouds.3 mph90%30.06 "Hg7 mi
10:00 am30 °FLow clouds.1 mph92%30.05 "Hg6 mi
9:00 am29 °FLow clouds.1 mph92%30.04 "Hg6 mi
8:00 am30 °FLow clouds.1 mph94%30.04 "Hg5 mi
7:00 am30 °FLow clouds.1 mph95%30.03 "Hg4 mi
6:00 am30 °FLow clouds.1 mph96%30.01 "Hg4 mi
5:00 am31 °FLow clouds.2 mph96%30.02 "Hg3 mi
4:00 am31 °FLow clouds.1 mph95%30.02 "Hg2 mi
3:00 am31 °FLow clouds.1 mph95%30.01 "Hg2 mi
2:00 am31 °FLow clouds.1 mph95%30.00 "Hg3 mi
1:00 am31 °FLow clouds.1 mph94%29.99 "Hg4 mi
12:00 am32 °FLow clouds.1 mph93%29.97 "Hg4 mi
11:00 pm
Sat, Dec 14
31 °FLow clouds.1 mph93%29.95 "Hg4 mi
10:00 pm32 °FLow clouds.1 mph93%29.93 "Hg4 mi
9:00 pm32 °FLow clouds.1 mph93%29.91 "Hg5 mi
Weather by CustomWeather, © 2019

See weather overview

Advertising